• Processing (Info)

  • MPEC 2001-H05 : 2001 GO2

    The following Minor Planet Electronic Circular may be linked-to from your own Web pages, but must not otherwise be redistributed electronically.

    A form allowing access to any MPEC is at the bottom of this page.


    Read MPEC 2001-H04 Read MPEC 2001-H06


    M.P.E.C. 2001-H05                                Issued 2001 Apr. 16, 19:25 UT
    
         The Minor Planet Electronic Circulars contain information on unusual
             minor planets and routine data on comets.  They are published
       on behalf of Commission 20 of the International Astronomical Union by the
              Minor Planet Center, Smithsonian Astrophysical Observatory,
                              Cambridge, MA 02138, U.S.A.
    
                 Prepared using the Tamkin Foundation Computer Network
    
                                  MPC@CFA.HARVARD.EDU
              URL http://cfa-www.harvard.edu/iau/mpc.html  ISSN 1523-6714
    
                                       2001 GO2
    
    Observations:
         K01G02O* C2001 04 13.20079 10 52 36.56 +37 26 40.6          18.5        704
         K01G02O  C2001 04 13.21433 10 52 51.54 +37 25 28.5          18.3        704
         K01G02O  C2001 04 13.22820 10 53 06.90 +37 24 14.1          19.2        704
         K01G02O  C2001 04 13.25600 10 53 37.60 +37 21 41.3          18.5        704
         K01G02O  C2001 04 14.22586 11 11 42.95 +36 00 06.5          19.0        704
         K01G02O  C2001 04 14.24010 11 11 55.31 +35 58 55.1          18.9        704
         K01G02O  C2001 04 14.25409 11 12 07.34 +35 57 43.7          19.1        704
         K01G02O MC2001 04 14.99137 11 23 20.67 +34 57 20.3                      118
         K01G02O MC2001 04 14.99549 11 23 23.87 +34 56 59.1                      118
         K01G02O  C2001 04 15.13523 11 25 40.93 +34 47 48.7          18.4        704
         K01G02O  C2001 04 15.13914 11 25 43.65 +34 47 32.4          18.1        704
         K01G02O  C2001 04 15.14830 11 25 50.24 +34 46 53.0          18.4        704
         K01G02O  C2001 04 15.15262 11 25 53.26 +34 46 35.2          18.5        704
         K01G02O  C2001 04 15.16573 11 26 02.52 +34 45 38.7          18.7        704
         K01G02O  C2001 04 15.17445 11 26 08.77 +34 44 58.5          18.7        704
         K01G02O  C2001 04 15.17962 11 26 12.34 +34 44 36.8          17.9        704
         K01G02O  C2001 04 15.18751 11 26 17.84 +34 44 02.3          18.5        704
         K01G02O tC2001 04 15.25334 11 27 05.87 +34 38 55.0                      684
         K01G02O tC2001 04 15.25696 11 27 08.14 +34 38 39.3                      684
         K01G02O  C2001 04 15.26059 11 27 10.62 +34 38 22.9                      684
         K01G02O  C2001 04 15.26426 11 27 13.16 +34 38 05.2          18.5 R      684
         K01G02O  C2001 04 15.26633 11 27 14.55 +34 37 56.1          18.3 R      684
    
    Observer details:
    118 Modra.  Observers A. Galad, D. Kalmancok.  0.6-m f/5.5 reflector + CCD.
    684 Prescott.  Observer P. G. Comba.  0.46-m f/4.5 reflector + CCD.
    704 Lincoln Laboratory ETS, New Mexico.  Observers M. Blythe, F. Shelly,
        M. Bezpalko, R. Huber, L. Manguso, S. Adams.  Measurers J. Stuart,
        R. Sayer, J. B. Evans, H. Viggh.  1.0-m f/2.15 reflector + CCD.
    
    Orbital elements:
    2001 GO2
    Epoch 2001 Apr. 1.0 TT = JDT 2452000.5                  Spahr
    M  72.91865              (2000.0)            P               Q
    n   0.98094990     Peri.  264.36125     -0.14068803     -0.98986630
    a   1.0031630      Node   193.77143     +0.93739758     -0.12691517
    e   0.1688257      Incl.    4.64470     +0.31857911     -0.06369648
    P   1.00           H   24.3           G   0.15
    From 22 observations 2001 Apr. 13-15.
    
    Ephemeris:
    2001 GO2                 a,e,i = 1.00, 0.17, 5                   q = 0.8338
    Date    TT    R. A. (2000) Decl.     Delta      r     Elong.  Phase     V
    2001 04 11    09 52.61   +40 24.7    0.021    1.010   112.2    66.7    18.3
    2001 04 21    12 15.69   +29 03.2    0.048    1.038   132.6    45.4    19.5
    2001 05 01    12 48.49   +23 35.0    0.081    1.065   133.7    43.2    20.6
    2001 05 11    13 05.56   +19 50.1    0.115    1.089   131.2    44.2    21.5
    2001 05 21    13 18.76   +16 33.0    0.151    1.111   127.6    46.2    22.2
    
    Timothy B. Spahr             (C) Copyright 2001 MPC           M.P.E.C. 2001-H05
    

    Read MPEC 2001-H04 Read MPEC 2001-H06


    MPEC number:

    Enter an MPEC number in one of the following forms:

    • 1997-B01 (the full form)
    • J97B01 (the packed version of the full form)
    • B01 (the abbreviated form)